Regional Weather Roundup
Issued by NWS Midland/Odessa, TX

Home | Current Version | Previous Version | Text Only | Print | Product List | Glossary On
Versions: 1 2 3 4 5 6 7 8 9 10 11 12 13 14 15 16 17 18 19 20 21 22 23 24 25 26 27 28 29 30 31 32 33 34 35 36 37 38 39 40 41 42 43 44 45 46 47 48 49 50
000
ASUS44 KMAF 202210
RWRMAF
MIDLAND AREA WEATHER ROUNDUP
NATIONAL WEATHER SERVICE MIDLAND TX
500 PM CDT FRI OCT 20 2017

...IN SOUTHWEST TEXAS AND SOUTHEAST NEW MEXICO...

CITY           SKY/WX    TMP DP  RH WIND       PRES   REMARKS
ALPINE         SUNNY     82  43  25 W10       30.02S
ANDREWS        FAIR      79  56  44 S15G21    29.89F
ARTESIA        SUNNY     81  52  36 S20G26    29.84F
BIG SPRING     SUNNY     78  58  51 S15G22    29.90F
CARLSBAD       SUNNY     84  49  29 S12G18    29.83F
DRYDEN           N/A     78  62  57 E14       29.88F
FORT STOCKTON  SUNNY     85  47  26 S6        29.87F
GUAD PASS      NOT AVBL
HOBBS          SUNNY     77  54  44 S14G22    29.89S
LAMESA         FAIR      77  59  53 S21G28    29.89F
MARFA          SUNNY     80  39  23 W14G21    30.00S
MIDLAND AIRPK  SUNNY     80  56  43 S15       29.89F
MIDLAND INTL   SUNNY     81  56  42 SE17G24   29.88F
ODESSA         NOT AVBL
PECOS          SUNNY     84  53  34 CALM      29.84F
PRESIDIO       FAIR      86  47  26 CALM      29.89F
SEMINOLE       SUNNY     81  51  35 S14       29.89F
SNYDER         SUNNY     80  59  49 S20       29.88F
WINK           SUNNY     84  52  33 S10       29.84F
$$
...OTHER STATIONS IN TEXAS...

CITY           SKY/WX    TMP DP  RH WIND       PRES   REMARKS
ABILENE        MOSUNNY   80  61  52 S16G26    29.88F
AMARILLO       SUNNY     79  51  37 S26G33    29.79F
AUSTIN         PTSUNNY   81  69  67 S10       29.91F
BROWNSVILLE    SUNNY     88  69  53 SE9       29.89F
CORPUS CHRISTI PTSUNNY   84  68  58 E15       29.89F
DALLAS FTW     PTSUNNY   83  65  54 SE20G25   29.89F
DEL RIO        PTSUNNY   78  66  66 SE13      29.87F
EL PASO        MOSUNNY   86  35  16 W20       29.86F
HOUSTON INT    PTSUNNY   77  71  82 E12       29.96F
LUBBOCK        MOSUNNY   80  54  40 S22G30    29.86S
SAN ANGELO     SUNNY     80  57  45 S16       29.89F
SAN ANTONIO    CLOUDY    78  66  66 SE6       29.94S
WACO           MOSUNNY   86  63  45 SE15G22   29.90F
WICHITA FALLS  PTSUNNY   75  59  57 S24G36    29.79F
$$
...OTHER LOCATIONS IN NEW MEXICO...

CITY           SKY/WX    TMP DP  RH WIND       PRES   REMARKS
ALAMOGORDO     SUNNY     77  46  33 SW8       29.91F
ALBUQUERQUE    PTSUNNY   72  43  35 S13       29.87F
CANNON AFB     SUNNY     77  49  37 S21G26    29.83F
CLOVIS           N/A     77  50  38 SW22G29   29.83F
HOLLOMAN AFB   SUNNY     78  45  31 SW7       29.91F
ROSWELL        SUNNY     82  50  32 S17G25    29.81F
RUIDOSO        SUNNY     66  37  34 SW25G35   30.00S
SANTA FE       CLOUDY    65  42  43 W7        29.92F
TRUTH OR CONSE SUNNY     82  27  13 W16G25    29.87F
TUCUMCARI      MOSUNNY   79  48  33 SW25G36   29.74F
$$



USA.gov is the U.S. government's official web portal to all federal, state and local government web resources and services.